FW2123 Weather Reports


time (UTC)temp
C
wind
direction
speed
KPH
gust
KPH
rain 1hr
cm
rain 24hr
cm
rain mn
cm
humidity
%
barometer
mb
20260507225531 15 212 4.8 9.7 0.00 0.00 0.00 70 1011.4
20260507224519 16 195 6.4 11.3 0.00 0.00 0.00 69 1011.3
20260507223524 16 200 6.4 9.7 0.00 0.00 0.00 69 1011.1
20260507222530 16 192 3.2 8.0 0.00 0.00 0.00 67 1011.1
20260507221522 16 197 6.4 9.7 0.00 0.00 0.00 66 1011.1
20260507220528 16 230 4.8 9.7 0.00 0.00 0.00 66 1011.0
20260507215515 17 203 6.4 11.3 0.00 0.00 0.00 65 1011.0
20260507214541 17 195 3.2 6.4 0.00 0.00 0.00 64 1011.1
20260507213606 17 212 4.8 9.7 0.00 0.00 0.00 64 1011.1
20260507212531 17 196 3.2 4.8 0.00 0.00 0.00 65 1011.1
20260507211519 17 190 3.2 4.8 0.00 0.00 0.00 65 1011.2
20260507210544 17 173 4.8 6.4 0.00 0.00 0.00 65 1011.2
20260507205530 17 198 4.8 8.0 0.00 0.00 0.00 64 1011.2
20260507204518 18 215 4.8 8.0 0.00 0.00 0.00 62 1011.2
20260507203524 18 196 4.8 9.7 0.00 0.00 0.00 62 1011.2
20260507202529 18 200 4.8 8.0 0.00 0.00 0.00 62 1011.3
20260507201517 18 221 3.2 9.7 0.00 0.00 0.00 61 1011.2
20260507200522 18 184 4.8 8.0 0.00 0.00 0.00 61 1011.4
20260507195527 18 184 4.8 6.4 0.00 0.00 0.00 61 1011.5
20260507194535 17 212 6.4 12.9 0.00 0.00 0.00 62 1011.6
20260507193520 18 209 4.8 8.0 0.00 0.00 0.00 64 1011.7
20260507192526 17 215 3.2 6.4 0.00 0.00 0.00 65 1011.8
20260507191531 15 210 4.8 8.0 0.00 0.00 0.00 67 1011.9
20260507190518 16 210 4.8 8.0 0.00 0.00 0.00 66 1011.9
20260507185525 17 194 4.8 11.3 0.00 0.00 0.00 61 1011.9
20260507184530 18 215 3.2 6.4 0.00 0.00 0.00 59 1011.9
20260507183518 18 14 4.8 6.4 0.00 0.00 0.00 54 1012.0
20260507182523 18 7 3.2 6.4 0.00 0.00 0.00 54 1012.2
20260507181528 18 297 4.8 11.3 0.00 0.00 0.00 54 1012.4
20260507180515 17 19 4.8 9.7 0.00 0.00 0.00 58 1012.7
20260507175521 17 5 3.2 6.4 0.00 0.00 0.00 58 1012.6
20260507174527 17 10 4.8 6.4 0.00 0.00 0.00 57 1012.5
20260507173532 16 353 3.2 4.8 0.00 0.00 0.00 58 1012.8
20260507172540 16 358 4.8 6.4 0.00 0.00 0.00 57 1013.0
20260507171526 16 200 3.2 6.4 0.00 0.00 0.00 61 1013.5
20260507170631 16 220 1.6 4.8 0.00 0.00 0.00 63 1013.7
20260507165519 15 3 1.6 3.2 0.00 0.00 0.00 62 1013.9
20260507164524 15 212 4.8 6.4 0.00 0.00 0.00 62 1013.9
20260507163549 14 9 3.2 6.4 0.00 0.00 0.00 65 1014.2
20260507162517 14 329 1.6 4.8 0.00 0.00 0.00 61 1014.1
20260507161522 14 22 3.2 4.8 0.00 0.00 0.00 62 1014.4
20260507160528 14 347 3.2 6.4 0.00 0.00 0.00 64 1014.4
20260507155515 14 33 4.8 6.4 0.00 0.00 0.00 62 1014.4
20260507154521 14 5 4.8 6.4 0.00 0.00 0.00 63 1014.3
20260507153526 14 21 4.8 8.0 0.00 0.00 0.00 64 1014.5
20260507152532 13 2 4.8 8.0 0.00 0.00 0.00 64 1014.6
20260507151520 13 7 3.2 6.4 0.00 0.00 0.00 65 1014.9
20260507150545 13 359 6.4 8.0 0.00 0.00 0.00 65 1014.9
20260507145530 13 49 3.2 6.4 0.00 0.03 0.00 67 1015.0
20260507144518 13 26 3.2 4.8 0.00 0.03 0.00 68 1015.1
20260507143523 12 27 3.2 4.8 0.00 0.03 0.00 69 1015.3
20260507142529 12 14 1.6 4.8 0.00 0.08 0.00 71 1015.2
20260507141516 12 20 4.8 8.0 0.00 0.10 0.00 69 1015.3
20260507140522 12 24 3.2 6.4 0.00 0.13 0.00 71 1015.5
20260507135527 12 19 3.2 6.4 0.00 0.13 0.00 69 1015.6
20260507134515 12 48 3.2 4.8 0.00 0.15 0.00 70 1015.6
20260507133520 12 48 4.8 11.3 0.00 0.15 0.00 69 1015.6
20260507132526 12 28 4.8 6.4 0.00 0.18 0.00 71 1015.5
20260507131531 12 29 4.8 6.4 0.00 0.23 0.00 71 1015.5
20260507130519 12 26 4.8 8.0 0.00 0.28 0.00 71 1015.5
20260507125524 12 9 3.2 8.0 0.00 0.33 0.00 71 1015.5
20260507124550 12 14 4.8 6.4 0.00 0.36 0.00 72 1015.5
20260507123517 12 12 4.8 6.4 0.00 0.36 0.00 72 1015.5
20260507122523 12 33 4.8 6.4 0.00 0.36 0.00 73 1015.5
20260507121548 12 9 3.2 6.4 0.00 0.36 0.00 73 1015.3
20260507120516 12 356 4.8 8.0 0.00 0.36 0.00 76 1015.2
20260507115522 12 26 4.8 6.4 0.00 0.36 0.00 78 1015.2
20260507114527 12 18 4.8 8.0 0.00 0.38 0.00 78 1015.1
20260507113532 12 32 4.8 6.4 0.00 0.38 0.00 82 1014.9
20260507112540 12 23 4.8 6.4 0.00 0.38 0.00 86 1014.7
20260507111546 12 17 4.8 6.4 0.00 0.38 0.00 87 1014.6
20260507110531 12 13 4.8 6.4 0.00 0.38 0.00 88 1014.6
20260507105518 12 18 3.2 4.8 0.00 0.38 0.00 88 1014.6
20260507104524 12 32 4.8 8.0 0.00 0.38 0.00 88 1014.6
20260507103550 12 35 3.2 4.8 0.00 0.38 0.00 89 1014.4
20260507102518 12 32 4.8 6.4 0.00 0.38 0.00 89 1014.5
20260507101523 12 38 3.2 4.8 0.00 0.38 0.00 89 1014.2
20260507100548 12 28 3.2 4.8 0.00 0.38 0.00 90 1014.2
20260507095515 12 25 3.2 4.8 0.00 0.38 0.00 89 1014.2
20260507094522 12 52 1.6 3.2 0.00 0.38 0.00 88 1014.2
20260507093527 12 32 3.2 4.8 0.00 0.38 0.00 88 1014.1
20260507092526 12 8 3.2 8.0 0.00 0.38 0.00 88 1014.1
20260507091520 12 38 3.2 6.4 0.00 0.38 0.00 89 1013.8
20260507090545 12 17 4.8 6.4 0.00 0.38 0.00 90 1013.9
20260507085524 12 16 3.2 4.8 0.00 0.38 0.00 90 1014.0
20260507084519 12 359 3.2 4.8 0.00 0.38 0.00 90 1014.1
20260507083523 12 21 3.2 3.2 0.00 0.38 0.00 91 1013.8
20260507082523 12 33 3.2 4.8 0.00 0.38 0.00 91 1014.0
20260507081517 12 33 3.2 4.8 0.00 0.38 0.00 91 1013.7
20260507080522 12 26 3.2 6.4 0.00 0.38 0.00 92 1013.5
20260507075522 12 29 3.2 4.8 0.00 0.38 0.00 93 1013.3
20260507074535 12 32 3.2 4.8 0.00 0.38 0.00 93 1013.2
20260507073521 12 33 3.2 8.0 0.00 0.38 0.00 93 1013.3
20260507072520 12 17 3.2 6.4 0.00 0.38 0.00 94 1013.2
20260507071519 12 22 4.8 8.0 0.00 0.38 0.00 95 1013.3
20260507070520 12 3 4.8 8.0 0.00 0.38 0.00 94 1013.4
20260507065519 12 20 6.4 9.7 0.00 0.38 0.00 94 1013.3
20260507064518 12 22 6.4 11.3 0.00 0.38 0.00 96 1013.2
20260507063518 12 13 6.4 9.7 0.00 0.38 0.00 98 1013.5
20260507062537 12 9 4.8 8.0 0.00 0.38 0.00 99 1013.5
20260507061517 12 19 4.8 8.0 0.00 0.38 0.00 99 1013.2
20260507060516 12 26 4.8 9.7 0.00 0.38 0.00 99 1013.2
20260507055536 12 10 4.8 9.7 0.00 0.38 0.00 99 1013.3
20260507054515 12 8 6.4 6.4 0.00 0.38 0.00 99 1013.4
20260507053515 13 8 4.8 6.4 0.00 0.38 0.00 99 1013.3
20260507052520 13 23 4.8 6.4 0.00 0.38 0.00 99 1013.4
20260507051545 13 53 4.8 6.4 0.00 0.38 0.00 99 1013.3
20260507050531 13 17 4.8 6.4 0.00 0.38 0.00 99 1012.7
20260507045519 13 26 3.2 6.4 0.00 0.38 0.00 99 1013.2
20260507044524 14 355 4.8 6.4 0.00 0.38 0.00 99 1013.4
20260507043530 14 25 4.8 6.4 0.00 0.38 0.00 97 1012.8
20260507042518 15 21 4.8 8.0 0.00 0.38 0.00 95 1013.7
20260507041543 15 40 8.0 11.3 0.00 0.38 0.00 94 1013.4
20260507040528 15 25 4.8 8.0 0.00 0.38 0.00 94 1013.2
20260507035536 16 9 4.8 6.4 0.00 0.38 0.00 94 1012.8
20260507034522 16 22 4.8 6.4 0.00 0.38 0.00 90 1012.6
20260507033527 16 24 4.8 6.4 0.00 0.38 0.00 89 1012.7
20260507032533 16 17 4.8 6.4 0.00 0.38 0.00 88 1012.6
20260507031520 16 359 8.0 12.9 0.00 0.38 0.00 88 1013.1
20260507030526 17 18 4.8 8.0 0.00 0.38 0.00 88 1012.4
20260507025531 17 17 4.8 8.0 0.00 0.38 0.00 88 1012.2
20260507024519 17 11 4.8 6.4 0.00 0.38 0.00 88 1012.1
20260507023544 17 34 6.4 9.7 0.00 0.38 0.00 89 1012.1
20260507022550 17 355 6.4 12.9 0.00 0.38 0.00 91 1012.1
20260507021537 17 32 4.8 6.4 0.00 0.38 0.00 95 1011.9
20260507020523 17 20 4.8 6.4 0.00 0.38 0.00 96 1011.8
20260507015528 17 20 4.8 6.4 0.00 0.38 0.00 96 1011.9
20260507014515 17 27 4.8 6.4 0.00 0.38 0.00 97 1011.9
20260507013521 18 48 3.2 4.8 0.00 0.38 0.00 99 1011.7
20260507012547 18 16 4.8 6.4 0.00 0.38 0.00 99 1011.9
20260507011532 18 27 1.6 4.8 0.00 0.38 0.00 99 1012.3
20260507010540 18 182 1.6 4.8 0.00 0.38 0.00 99 1012.2
20260507005545 18 58 3.2 6.4 0.00 0.38 0.00 99 1011.9
20260507004531 18 6 3.2 4.8 0.00 0.38 0.00 99 1011.7
20260507003518 18 182 1.6 3.2 0.00 0.38 0.00 99 1011.6
20260507002544 18 340 1.6 3.2 0.00 0.38 0.00 99 1011.4
20260507001529 18 0.0 0.0 0.00 0.38 0.00 99 1011.5
20260507000517 19 340 0.0 1.6 0.00 0.38 0.00 99 1011.2
20260506235522 20 35 3.2 4.8 0.00 0.38 0.38 98 1011.2
20260506234528 20 49 1.6 3.2 0.00 0.38 0.38 96 1011.3
20260506233515 20 337 1.6 3.2 0.00 0.38 0.38 93 1010.8
20260506232541 20 203 0.0 1.6 0.00 0.38 0.38 91 1010.5
20260506231526 20 194 3.2 8.0 0.00 0.38 0.38 90 1010.6
20260506230532 20 193 3.2 4.8 0.00 0.38 0.38 90 1010.6